小惑星2006 EX52

2006 EX52

English version
Home page
Updated on August 10, 2007

---------------------------------------------------------------------

・ プロフィール

符号 2006 EX52
発見日 2006年3月5日
発見光度 19.9等
発見者 Catalina Sky Survey

・ 軌道要素

The following orbital elements are taken from MPO121855

Epoch 2007 Oct. 27.0 TT = JDT 2454400.5                 MPC
M   1.21929              (2000.0)            P               Q
n   0.00344290     Peri.  163.40849     +0.13050656     +0.87839383
a  43.4363657      Node   247.92036     +0.84394396     +0.14494922
e   0.9406811      Incl.  150.25362     +0.52031396     -0.45542728
P 286              H   14.6           G   0.15           U   0
From 201 observations at 2 oppositions, 2006-2007, mean residual 0".36.

・ 光度変化

        H = 14.3  G = 0.15

---------------------------------------------------------------------

軌道要素はMPCのEphemerides and Orbital Elementsに掲載されたものです。
光度グラフはComet for Windowsで作成したものです。

---------------------------------------------------------------------

Copyright(C) Seiichi Yoshida (comet@aerith.net). All rights reserved.